DELTA 1 DEB, 37664

Orbit data source: Space-Track

DELTA 1 DEB, 37664 is space debris in SSO originally from a launch on Sun, 05 Mar 1978 UTC launched from the Air Force Western Test Range (AFWTR). Debris objects in space refer to the collection of defunct objects orbiting the Earth. Examples of debris include non-operational satellites, rocket bodies, and fragments generated from explosions, collisions, or faulty payload assembly.

Loading next visibility...
Identifier
37664, 1978-026KB
Orbit
SSO
Country
Flag of USUS
Related business
Manufacturer
Unknown
Mission
Spacecraft
Bus & Motor
Unknown
Mass
Unknown
Launch date (UTC)
1978-03-05 (48 years ago)
Launch vehicle
Unknown
Launch site
Air Force Western Test Range (AFWTR)
Object type
Payload
Rocket body
Debris
Shape & HBR
Unknown shape, 0.1 m
Radar Cross Section
Small (<0.1 m²)

Expand to show TLE details & history
Last TLE update: 1 week ago

TLE from 1 week ago
0 DELTA 1 DEB
1 37664U 78026KB  26166.78255968  .00000060  00000-0  81922-4 0  9992
2 37664  98.7626   2.2211 0074895 296.2434 125.8674 13.88831685331143
Epoch: 2026-06-15T18:46Z
TLE epoch observation values (Epoch: 2026-06-15T18:46:53.156Z)
Latitude
61.62107°
Longitude
159.94581°
Altitude
975.583 km
Speed
7.353 km/s
True Right ascension
23h 02m 55s
True Declination
61° 28' 53"
Sunlit
Object was in daylight at epoch
Visualization orbit readout
Latitude
Unknown
Longitude
Unknown
Altitude
Unknown
Speed
Unknown
Apparent Right ascension
Unknown
Apparent Declination
Unknown
Sunlit
N/A
Visualization observer readout
Local Sidereal Time
00:39:50
Azimuth
Unknown
Elevation
Unknown
Doppler factor
Unknown
Orbital elements
Apogee altitude
984.664 km
Perigee altitude
875.197 km
Semi-major axis
7,308.068 km
Eccentricity
0.00749
Inclination
98.7626°
RAAN
2.2211°
Arg. of periapsis
296.2434°
True anomaly
126.55908°
Mean anomaly
125.8674°
Eccentric anomaly
126.21362°
Mean motion
3.47408 °/min
Orbital period
103.62 mins
BSTAR
0.000081922
Loading maneuver chart data...
Computing Atmospheric mass density...
Loading historical data...
Loading historical data...
Loading historical data...
Loading historical data...
Loading historical data...
Loading historical data...
Loading historical data...

Documentation

Showing up to 5 results
|